Weather History for Huntsville, TX

Change the Weather History Date:

Friday, January 25, 2013

  Actual Average (KCXO) Record (KCXO)
Temperature  
Mean Temperature 68 °F -  
Max Temperature 75 °F 60 °F 77 °F (2013)
Min Temperature 62 °F 40 °F 24 °F (2014)
Cooling Degree Days 4    
Growing Degree Days 18 (Base 50)    
Moisture  
Dew Point 59 °F    
Average Humidity 78    
Maximum Humidity 88    
Minimum Humidity 56    
Precipitation  
Precipitation 0.00 in - - ()
Sea Level Pressure  
Sea Level Pressure 30.11 in    
Wind  
Wind Speed 10 mph (SSW)    
Max Wind Speed 14 mph    
Max Gust Speed 24 mph    
Visibility 10 miles    
Events      
Averages and records for this station are not official NWS values.
T = Trace of Precipitation, MM = Missing Value Source: NWS Daily Summary

Daily Weather History Graph

Daily Weather History Graph

Search for Another Location

Airport:

Trip Planner

Search our weather history database for the weather conditions in past years. The results will help you decide how hot, cold, wet, or windy it might be!

Date:

Astronomy

Jan. 25, 2013 Rise Set
Actual Time 7:17 AM CST 5:52 PM CST
Civil Twilight 6:51 AM CST 6:18 PM CST
Nautical Twilight 6:22 AM CST 6:47 PM CST
Astronomical Twilight 5:53 AM CST 7:15 PM CST
Moon 4:50 PM CST (1/25) 5:57 AM CST (1/25)
Length of Visible Light 11h 26m
Length of Day
10h 35m
Waxing Gibbous, 98% of the Moon is Illuminated
Jan 25
Waxing Gibbous
Jan 26
Full
Feb 3
Last Quarter
Feb 10
New
Feb 17
First Quarter

Hourly Weather History & Observations

Time (CST) Temp. Dew Point Humidity Pressure Visibility Wind Dir Wind Speed Gust Speed Precip Events Conditions
12:41 AM 62.6 °F 59.0 °F 88% 30.14 in 10.0 mi SSW 12.7 mph - N/A   Scattered Clouds
12:53 AM 64.0 °F 59.0 °F 84% 30.13 in 10.0 mi South 12.7 mph - N/A   Scattered Clouds
1:16 AM 64.4 °F 59.0 °F 83% 30.13 in 10.0 mi South 11.5 mph 20.7 mph N/A   Mostly Cloudy
1:53 AM 64.0 °F 59.0 °F 84% 30.11 in 10.0 mi South 13.8 mph 24.2 mph N/A   Overcast
2:36 AM 64.4 °F 59.0 °F 83% 30.11 in 10.0 mi South 10.4 mph 23.0 mph N/A   Overcast
2:53 AM 64.0 °F 60.1 °F 87% 30.10 in 10.0 mi South 12.7 mph 19.6 mph N/A   Overcast
3:53 AM 64.9 °F 60.1 °F 84% 30.10 in 10.0 mi SSW 11.5 mph 19.6 mph N/A   Overcast
4:39 AM 64.4 °F 60.8 °F 88% 30.11 in 10.0 mi SSW 8.1 mph - N/A   Overcast
4:53 AM 64.0 °F 60.1 °F 87% 30.11 in 10.0 mi SSW 5.8 mph - N/A   Mostly Cloudy
5:17 AM 62.6 °F 57.2 °F 82% 30.12 in 10.0 mi SSW 10.4 mph 16.1 mph N/A   Scattered Clouds
5:49 AM 62.6 °F 57.2 °F 82% 30.11 in 10.0 mi SSW 8.1 mph - N/A   Mostly Cloudy
5:53 AM 63.0 °F 57.9 °F 84% 30.10 in 10.0 mi SSW 10.4 mph - N/A   Mostly Cloudy
6:20 AM 62.6 °F 57.2 °F 82% 30.12 in 10.0 mi SSW 8.1 mph - N/A   Scattered Clouds
6:53 AM 62.1 °F 57.9 °F 86% 30.12 in 10.0 mi South 8.1 mph - N/A   Mostly Cloudy
7:07 AM 62.6 °F 57.2 °F 82% 30.13 in 10.0 mi SSW 8.1 mph - N/A   Scattered Clouds
7:17 AM 62.6 °F 57.2 °F 82% 30.13 in 10.0 mi SW 6.9 mph - N/A   Mostly Cloudy
7:26 AM 62.6 °F 57.2 °F 82% 30.13 in 10.0 mi SSW 9.2 mph 17.3 mph N/A   Scattered Clouds
7:40 AM 62.6 °F 57.2 °F 82% 30.14 in 10.0 mi SSW 8.1 mph - N/A   Mostly Cloudy
7:53 AM 63.0 °F 57.9 °F 84% 30.13 in 10.0 mi SSW 10.4 mph - N/A   Mostly Cloudy
8:09 AM 62.6 °F 57.2 °F 82% 30.14 in 10.0 mi SSW 9.2 mph 17.3 mph N/A   Scattered Clouds
8:53 AM 64.9 °F 57.9 °F 78% 30.14 in 10.0 mi SSW 10.4 mph 19.6 mph N/A   Clear
9:53 AM 66.9 °F 57.9 °F 73% 30.17 in 10.0 mi SSW 11.5 mph 21.9 mph N/A   Partly Cloudy
10:53 AM 71.1 °F 57.0 °F 61% 30.17 in 10.0 mi SSW 11.5 mph 16.1 mph N/A   Partly Cloudy
11:53 AM 73.0 °F 57.9 °F 59% 30.15 in 10.0 mi SSW 10.4 mph 19.6 mph N/A   Clear
1:53 PM 75.0 °F 59.0 °F 57% 30.09 in 10.0 mi SSW 9.2 mph 19.6 mph N/A   Partly Cloudy
2:53 PM 75.9 °F 59.0 °F 56% 30.06 in 10.0 mi South 11.5 mph 18.4 mph N/A   Partly Cloudy
3:53 PM 75.9 °F 59.0 °F 56% 30.05 in 10.0 mi SSW 12.7 mph - N/A   Clear
4:53 PM 75.9 °F 59.0 °F 56% 30.05 in 10.0 mi South 10.4 mph - N/A   Clear
5:53 PM 72.0 °F 59.0 °F 64% 30.06 in 10.0 mi South 3.5 mph - N/A   Clear
6:53 PM 69.1 °F 59.0 °F 70% 30.08 in 10.0 mi Calm Calm - N/A   Clear
7:53 PM 64.0 °F 57.9 °F 80% 30.09 in 10.0 mi Calm Calm - N/A   Clear
8:53 PM 66.0 °F 59.0 °F 78% 30.10 in 10.0 mi South 4.6 mph - N/A   Partly Cloudy
9:53 PM 66.0 °F 60.1 °F 81% 30.11 in 10.0 mi South 6.9 mph - N/A   Clear
10:53 PM 64.0 °F 60.1 °F 87% 30.12 in 10.0 mi South 3.5 mph - N/A   Clear
11:53 PM 64.0 °F 60.1 °F 87% 30.14 in 10.0 mi West 3.5 mph - N/A   Mostly Cloudy